Temperature
20 20 20 20 23 24 23 23 23 23 23 22 22 22 22 22 22 20 17 17 17 17 17 17 17 17 17 17 17 17 17 17 17 17 17 17 17 17 17 17 17 17 17 17 17 17 17 17 17
20 20 20 22 24 24 23 23 23 23 22 21 21 22 22 20 19 18 17 17 17 17 17 16 17 17 17 17 17 17 17 17 17 17 17 17 17 17 17 17 17 17 17 17 17 17 17 17 17
20 20 21 24 24 24 23 23 23 22 21 22 22 21 21 20 19 18 17 17 17 17 16 16 17 17 17 17 17 17 17 16 16 16 16 16 16 16 16 16 16 16 16 16 17 17 17 17 17
20 20 22 24 23 23 24 23 23 22 22 22 22 21 20 19 18 18 17 17 17 17 16 16 17 17 17 17 16 16 16 16 16 16 16 16 16 16 16 16 16 16 16 16 16 17 17 17 17
20 22 24 24 23 23 24 23 23 23 22 22 22 21 19 18 18 18 17 17 17 17 16 16 16 16 16 16 16 16 16 16 16 16 16 16 15 15 15 15 15 15 16 16 16 16 16 17 17
21 23 24 23 23 23 23 23 23 23 22 22 22 21 19 18 18 18 17 17 17 17 16 16 16 16 16 16 16 16 16 15 15 15 15 15 15 15 15 15 15 15 15 16 16 16 16 16 17
22 24 24 24 23 23 23 22 23 23 22 22 21 21 19 18 18 17 17 17 17 17 16 16 16 16 16 16 16 16 16 15 15 15 15 15 15 15 15 15 15 15 15 15 15 16 16 16 16
21 24 24 24 23 23 23 22 22 22 22 21 21 21 20 18 18 17 17 17 17 17 16 16 16 16 16 16 16 16 16 16 15 15 15 15 15 15 15 15 15 15 15 15 15 15 15 16 16
21 24 23 23 23 23 23 22 22 21 21 21 21 21 20 18 18 18 18 17 17 17 17 17 16 16 16 16 16 15 15 15 15 15 15 15 15 15 15 15 15 15 15 15 15 15 15 16 16
22 23 23 23 23 23 23 23 22 22 22 21 20 19 19 18 18 19 19 18 18 18 17 17 17 16 16 16 16 16 15 15 15 15 15 15 15 15 15 15 15 15 15 15 15 15 15 15 16
23 23 22 22 22 23 23 22 22 23 22 22 21 20 19 19 19 19 19 19 18 18 17 17 17 17 17 16 16 16 15 15 15 15 15 15 15 15 15 15 15 14 15 15 15 15 15 15 15
22 22 22 22 21 22 23 22 23 23 22 21 21 20 19 19 20 20 19 19 18 18 18 17 17 17 17 16 16 16 16 15 15 15 15 15 15 15 15 15 15 14 14 14 14 15 15 15 16
22 22 21 21 21 22 22 22 22 22 21 21 20 20 20 20 20 20 19 19 19 18 18 18 17 17 17 16 16 16 15 15 15 15 15 15 15 15 15 15 14 14 14 14 14 15 15 15 15
22 21 21 21 21 22 22 22 22 21 21 21 20 20 20 20 20 20 19 19 19 19 18 18 17 17 17 17 16 16 16 15 15 15 15 15 15 15 14 15 14 14 14 14 14 15 15 15 15
21 22 22 21 22 22 22 22 22 21 21 21 21 20 20 20 20 20 20 19 19 19 18 18 17 17 17 16 16 16 15 15 15 15 15 15 14 14 14 14 14 14 14 14 14 14 15 15 15
22 22 21 21 21 21 22 21 22 20 21 21 21 21 20 20 20 20 20 19 19 19 18 18 17 17 17 16 16 16 15 15 15 15 14 15 14 14 14 14 14 14 14 14 14 14 15 15 15
21 21 21 21 21 22 22 21 21 21 21 21 21 21 21 20 20 20 20 19 19 19 18 18 17 17 17 16 16 16 15 15 15 15 14 14 14 14 14 14 14 14 14 14 14 14 15 15 15
21 22 21 21 21 22 22 22 22 21 21 22 22 22 21 21 21 20 20 19 19 19 18 18 18 17 17 16 16 16 15 15 15 15 14 14 14 14 14 14 14 14 14 14 14 14 14 14 15
22 22 21 21 21 21 22 22 22 21 22 22 22 22 22 21 21 20 20 19 19 19 18 18 18 17 17 16 16 16 16 15 15 15 15 14 14 14 14 14 14 14 14 14 14 14 14 14 15
22 21 21 21 21 21 21 22 22 22 22 22 22 22 22 21 21 20 20 19 19 19 18 18 18 17 17 17 16 16 16 15 15 15 15 14 14 14 14 14 14 14 14 14 14 14 14 14 14
22 21 21 21 21 21 21 21 22 22 22 21 21 22 22 21 21 20 20 20 19 19 19 18 18 17 17 17 16 16 16 16 15 15 15 15 14 14 14 14 14 14 14 14 14 14 14 14 14
21 22 22 21 21 21 21 21 22 23 22 22 22 22 22 21 21 20 20 20 19 19 19 18 18 18 17 17 17 17 16 16 16 15 15 15 15 14 14 14 14 14 14 14 14 14 14 14 14
21 21 21 22 21 21 21 22 23 23 23 23 23 22 21 21 20 20 20 20 19 19 19 18 18 18 17 17 17 16 16 16 16 15 15 15 15 15 15 14 14 14 14 14 14 14 14 14 14
21 20 21 21 21 21 22 22 23 24 24 24 24 22 21 21 20 20 20 19 19 19 19 19 18 18 18 17 17 17 16 16 16 16 15 15 15 15 15 14 14 14 14 14 14 14 14 14 14
21 20 19 19 20 21 23 22 24 25 25 25 24 23 21 21 20 20 19 19 19 19 19 19 18 18 18 17 17 17 16 16 16 16 16 15 15 15 15 15 14 14 14 14 14 14 14 14 14
21 21 20 20 20 21 22 22 24 24 23 23 23 23 21 20 20 20 19 19 19 19 19 19 18 18 18 17 17 17 16 16 16 16 15 15 15 15 15 15 14 14 14 14 14 14 14 14 14
20 21 21 21 21 22 23 23 24 23 23 22 22 22 21 20 20 19 19 19 19 19 19 19 18 18 18 17 17 17 16 16 16 16 15 15 15 15 15 15 14 14 14 14 14 14 14 14 14
21 21 21 20 20 21 22 23 24 23 23 23 22 22 21 20 20 19 19 19 19 19 19 18 18 18 18 17 17 17 16 16 16 16 16 15 15 15 15 15 14 14 14 14 14 14 14 14 14
20 20 21 22 22 22 22 24 25 25 24 24 23 22 21 20 20 19 19 19 19 19 19 18 18 18 17 17 17 17 16 16 16 16 16 15 15 15 15 15 14 14 14 14 14 14 14 13 13
22 21 21 21 22 22 23 24 25 25 25 24 23 22 21 20 19 19 19 19 19 19 18 18 18 18 18 17 17 17 16 16 16 16 16 15 15 15 15 14 14 14 14 14 14 14 13 13 13
Wind_Speed
2 2 2 2 3 2 5 4 3 4 4 5 6 5 6 7 5 7 5 6 7 8 8 10 10 10 11 11 11 11 11 11 11 10 10 10 10 10 9 9 8 8 7 7 7 7 6 6 6
2 2 3 3 2 4 5 4 6 7 6 6 6 7 8 8 8 8 7 7 8 9 9 11 11 11 11 12 12 12 12 11 11 11 11 10 9 9 8 8 8 8 8 7 6 6 6 6 6
1 2 2 1 1 3 5 5 8 8 6 4 5 6 6 7 7 6 8 9 9 9 10 12 11 12 12 13 12 12 12 12 11 11 10 10 9 8 7 7 7 7 7 7 6 6 6 6 6
1 2 2 1 6 6 6 7 8 8 5 5 6 8 7 7 6 10 11 10 11 10 12 13 11 12 13 13 13 12 12 11 10 10 9 9 8 7 7 6 6 6 6 6 6 6 6 5 5
2 2 2 4 6 6 6 5 5 6 5 6 7 10 9 8 12 13 12 11 11 11 12 14 12 13 13 13 12 12 11 10 9 9 8 7 7 6 6 6 6 6 6 6 6 6 5 5 5
2 1 3 5 7 6 6 5 6 8 9 8 10 11 9 10 12 12 11 11 11 11 11 13 13 12 12 12 11 11 10 10 9 8 8 7 7 7 6 6 6 6 6 6 5 5 5 5 4
1 0 3 6 8 7 5 5 6 7 9 7 8 10 10 11 11 11 11 11 10 10 9 10 11 11 11 11 10 10 10 10 9 8 8 7 7 7 6 6 6 6 6 6 6 5 5 5 4
1 1 4 5 7 7 6 5 6 8 9 8 5 8 11 13 12 11 10 10 9 8 8 8 8 7 8 9 10 9 9 9 8 8 7 5 3 4 4 4 7 7 7 7 7 6 5 4 4
2 3 4 4 5 6 7 7 5 6 9 7 6 9 15 16 13 11 10 9 8 7 6 6 6 6 5 6 6 5 6 6 4 5 5 3 4 5 4 9 8 7 7 7 7 6 4 3 1
2 2 3 2 3 6 8 7 7 7 10 10 12 14 15 14 13 11 10 9 8 7 6 5 5 4 4 4 4 4 5 6 6 7 6 5 5 5 5 5 5 6 5 3 4 3 2 5 0
1 1 3 3 3 6 7 7 6 8 8 11 15 17 16 14 11 10 9 8 7 6 5 4 4 3 3 3 4 4 4 5 6 6 6 4 4 4 5 4 3 4 4 5 3 3 3 2 2
1 3 3 4 4 5 6 7 6 6 7 11 15 17 16 14 11 10 9 8 7 5 5 4 3 3 3 4 4 3 4 5 6 6 7 5 4 4 5 5 6 5 5 5 4 4 3 3 2
2 4 5 5 5 6 7 7 7 8 10 13 16 16 15 13 11 9 8 7 5 5 4 4 3 3 3 4 3 4 5 6 7 6 7 6 5 4 4 5 5 5 5 4 4 4 4 3 3
3 5 6 6 6 5 8 7 7 8 11 14 16 15 14 12 11 9 7 6 5 5 5 5 4 4 4 4 4 5 6 6 7 7 7 7 6 5 5 5 5 6 6 5 4 4 3 2 3
4 7 6 4 5 5 7 7 7 8 11 14 15 14 13 11 9 7 6 5 5 5 5 6 5 5 5 6 6 6 6 7 7 7 8 8 8 7 6 6 6 6 6 5 5 4 3 3 2
6 7 6 4 4 4 5 7 7 8 11 13 14 13 12 10 9 7 6 4 4 5 6 6 5 6 6 6 6 6 6 7 7 7 7 9 9 8 7 6 6 7 6 5 4 4 4 4 3
7 9 9 6 4 5 5 7 7 8 10 11 12 13 12 11 9 7 6 5 5 5 6 7 7 6 6 6 6 6 6 6 6 7 7 8 8 8 7 6 7 8 6 6 5 5 4 4 4
10 10 8 7 5 6 7 7 8 9 10 11 11 12 12 11 10 8 6 6 6 6 6 7 7 6 6 5 5 5 5 5 6 6 7 8 8 8 7 6 8 8 6 6 6 6 5 4 4
7 8 8 6 4 5 6 8 8 9 10 11 11 11 12 11 10 8 7 7 7 7 7 7 7 6 5 4 4 4 4 4 4 6 7 7 7 8 8 6 8 7 7 7 7 6 6 5 4
8 8 8 7 5 5 6 7 7 9 10 10 11 12 12 11 11 9 8 8 8 8 8 8 7 6 5 3 4 3 4 3 4 4 5 6 7 8 7 7 6 7 6 7 8 6 5 5 5
8 8 8 7 6 5 6 6 9 9 9 9 10 10 11 12 13 12 11 9 9 9 8 7 7 7 5 5 4 4 4 3 3 3 4 5 6 7 7 7 7 6 7 7 7 7 7 5 5
7 5 6 7 8 6 7 6 10 12 11 12 12 12 12 12 12 12 11 10 10 9 8 8 7 7 6 5 4 4 2 3 3 3 3 4 5 6 6 7 7 7 6 6 7 7 6 5 5
4 4 5 5 6 6 8 6 8 12 13 15 14 13 12 12 12 12 11 11 9 9 8 7 7 7 6 5 4 3 3 3 3 2 3 3 4 5 5 6 6 6 6 7 7 7 7 6 6
8 6 4 3 5 8 10 9 7 12 15 15 15 14 13 13 13 11 10 9 9 8 8 8 8 7 6 5 5 3 3 3 3 2 2 2 3 3 5 5 5 6 6 6 6 6 7 7 6
10 8 5 6 7 6 7 8 6 8 11 13 15 16 14 14 13 13 12 11 10 10 9 9 9 8 7 6 5 4 3 3 2 2 2 2 3 3 4 4 5 5 5 6 6 6 6 6 6
13 11 6 5 6 5 6 8 4 4 6 9 11 14 14 14 14 13 13 12 11 11 10 9 9 8 7 6 5 4 4 2 2 2 2 2 3 4 4 4 5 5 5 5 5 5 6 6 6
11 10 5 2 3 5 7 5 4 5 8 10 12 14 15 15 14 14 13 12 11 11 10 10 9 8 8 6 5 5 4 3 3 2 2 2 3 3 4 4 4 5 5 5 5 5 6 5 6
6 8 6 6 5 5 6 8 6 11 13 13 14 15 15 15 15 14 13 12 11 10 10 9 9 9 8 7 5 4 4 4 3 2 3 3 3 3 3 3 4 5 5 5 5 5 5 5 6
9 9 7 6 4 4 4 4 4 9 13 16 17 16 17 17 16 14 13 12 11 11 10 10 9 9 8 7 6 6 5 4 4 3 3 2 2 3 3 3 4 4 4 5 5 5 5 5 5
10 10 11 7 6 5 4 2 4 6 9 13 15 16 16 16 15 14 13 13 12 11 11 10 10 9 8 8 7 6 6 5 4 4 3 2 3 3 3 3 3 4 4 4 5 4 4 5 5
Wind_Direction
262 300 274 247 223 138 91 84 96 102 82 72 73 75 76 56 50 83 100 101 103 100 98 104 98 97 95 93 90 90 88 87 86 85 83 81 78 74 70 64 58 53 51 45 39 38 39 36 34
310 300 255 249 226 128 95 96 98 87 100 102 82 78 79 72 74 95 109 107 103 95 91 89 93 91 90 90 89 87 85 83 82 81 80 77 74 70 67 64 58 52 46 40 34 33 33 29 28
282 269 279 255 112 95 108 109 103 101 105 105 96 72 66 83 90 98 109 113 103 95 91 90 91 90 87 85 86 85 83 82 81 80 78 75 72 68 64 61 53 46 40 34 27 25 25 23 22
267 237 240 156 99 81 108 119 117 113 99 91 105 89 80 72 90 108 115 113 105 99 94 91 87 88 86 85 83 81 80 78 78 75 72 69 65 60 57 50 42 37 29 24 23 18 15 14 13
257 263 168 119 100 99 103 111 123 109 102 105 107 102 92 81 101 111 115 112 106 99 95 93 86 86 85 83 80 77 75 73 70 67 63 60 57 52 47 43 36 28 21 18 17 13 9 6 2
263 253 164 135 119 116 110 109 120 106 106 107 109 108 100 113 113 113 114 110 105 100 98 98 89 81 79 78 75 73 71 67 63 59 54 50 47 44 40 37 30 23 18 17 15 13 10 6 357
303 243 147 135 132 129 115 114 121 115 115 112 118 113 121 124 119 120 116 111 105 102 99 98 100 97 89 77 68 66 61 57 55 49 46 44 42 40 38 33 25 20 22 20 15 14 13 10 2
327 213 154 147 146 131 126 117 111 110 107 115 120 125 136 135 131 125 122 120 115 111 106 100 95 90 89 87 73 61 56 51 49 46 41 35 58 63 46 35 34 22 24 22 20 20 15 10 11
270 214 170 148 148 134 140 132 114 110 118 112 100 113 129 134 138 134 134 129 123 119 114 108 104 95 84 75 76 70 70 51 43 64 53 4 30 38 42 39 33 30 28 25 22 18 8 328 135
244 201 133 108 128 138 145 136 134 137 126 120 117 118 129 140 145 142 138 132 130 127 121 115 109 99 84 68 67 54 52 47 36 34 30 27 31 29 26 78 53 40 24 32 33 347 281 276 4
229 115 97 101 110 139 140 131 137 139 129 135 138 140 143 144 145 141 132 125 119 118 117 113 108 96 77 70 51 47 43 44 42 33 30 26 28 32 30 22 41 23 356 1 11 311 353 349 19
144 87 92 100 109 135 137 136 131 118 119 134 138 142 145 147 144 140 134 128 123 116 111 107 107 105 80 66 62 50 47 42 40 35 29 27 28 20 29 22 17 7 8 -0 353 350 4 359 14
169 121 104 106 111 118 126 123 116 106 118 131 137 144 147 145 142 138 132 126 122 119 117 105 102 93 88 78 64 62 57 48 56 40 34 34 32 31 26 27 15 9 6 3 357 354 12 359 15
151 135 122 117 114 121 125 118 118 114 132 139 145 149 151 147 145 143 141 135 128 122 108 107 108 98 95 93 78 67 68 67 54 48 42 40 41 35 23 29 24 19 9 6 358 12 12 19 32
152 147 133 125 125 130 133 125 123 132 145 147 151 152 152 152 153 152 146 139 125 118 114 108 104 100 96 86 76 75 70 64 58 52 46 50 45 39 34 28 29 22 15 13 13 23 13 34 48
170 176 167 143 143 155 170 143 131 152 158 156 158 157 160 163 164 161 156 146 131 126 120 115 112 110 102 95 90 85 75 68 62 56 49 47 45 39 36 31 31 24 20 22 26 23 26 38 39
187 190 175 148 156 167 174 149 146 167 170 166 168 165 169 170 170 168 165 157 140 132 129 121 116 115 109 104 99 90 84 72 63 57 48 40 38 34 41 33 27 28 28 27 26 33 29 44 45
187 186 178 165 155 173 168 156 155 172 181 176 176 175 175 177 174 169 162 153 146 142 137 126 124 125 120 118 112 103 91 79 65 58 51 39 36 35 37 38 35 29 36 34 35 37 40 40 38
178 180 172 150 147 175 175 169 171 176 186 185 183 185 183 180 173 166 163 160 157 156 151 142 146 143 140 134 126 112 101 88 74 60 50 45 41 38 40 33 36 28 37 34 34 32 48 45 31
181 179 167 149 158 175 181 189 186 191 196 197 192 188 185 180 176 173 175 170 167 165 165 158 154 151 147 129 116 110 104 89 76 70 67 48 43 37 35 36 38 38 37 38 35 32 33 44 30
188 193 179 162 154 168 180 203 203 197 201 202 205 199 190 185 183 177 178 174 171 174 173 164 158 158 155 145 131 129 122 124 108 85 66 47 42 40 36 36 32 34 36 38 32 30 33 40 44
186 187 184 173 180 182 196 206 204 198 200 203 200 199 197 187 186 180 176 176 180 177 172 168 162 162 157 159 157 142 123 103 84 73 73 65 51 45 38 35 31 35 38 38 38 39 33 29 41
170 161 185 193 198 191 202 222 200 192 204 204 198 195 193 187 185 182 178 178 177 171 170 167 160 161 162 166 157 162 133 109 101 95 82 65 62 47 42 36 35 36 39 40 40 38 34 38 35
148 146 147 191 209 216 205 217 208 197 205 199 194 192 188 183 181 177 172 170 169 166 166 166 161 160 163 171 170 165 138 132 115 101 80 73 73 58 52 39 39 39 41 41 41 42 44 39 39
181 177 181 193 206 216 191 219 226 195 201 199 192 187 181 178 176 173 170 170 169 168 168 167 166 163 167 172 173 163 158 144 121 94 86 65 68 64 53 46 42 43 42 42 41 44 41 46 42
194 201 205 203 199 187 193 224 211 168 193 199 189 180 175 175 175 174 172 171 169 168 168 169 168 165 165 168 167 161 154 154 111 91 79 76 68 64 59 55 51 50 45 45 45 41 44 43 45
190 208 229 249 220 207 201 213 220 187 190 188 182 176 178 176 175 173 171 171 168 168 169 171 168 166 165 163 161 162 159 146 126 118 97 88 87 78 70 67 65 60 50 45 47 46 46 45 41
212 192 197 216 205 211 205 216 208 187 191 188 184 181 180 178 176 173 171 171 168 167 168 169 169 166 163 162 162 159 154 143 130 121 101 93 92 87 80 75 72 71 61 55 49 50 39 45 50
185 194 208 216 235 238 202 195 194 192 190 189 188 185 181 179 178 174 171 168 165 164 165 168 167 164 161 163 160 157 151 148 142 124 109 107 108 108 94 75 68 64 57 56 56 46 43 37 43
205 207 209 212 212 235 247 185 134 188 190 191 186 183 181 179 175 171 168 165 165 167 167 166 165 163 161 162 161 157 150 154 150 135 125 124 113 105 102 90 78 67 57 50 49 44 39 35 33
Height
1518 1518 1517 1518 1516 1514 1518 1519 1516 1518 1520 1523 1523 1523 1524 1527 1530 1539 1541 1539 1541 1542 1542 1541 1542 1542 1542 1543 1543 1543 1543 1543 1543 1543 1544 1543 1543 1543 1543 1543 1542 1542 1542 1542 1542 1541 1541 1541 1541
1518 1518 1519 1518 1513 1518 1522 1518 1519 1520 1523 1525 1525 1526 1527 1531 1535 1538 1540 1541 1542 1543 1543 1543 1543 1543 1543 1544 1544 1544 1544 1544 1544 1544 1544 1544 1544 1544 1543 1543 1543 1542 1542 1542 1541 1541 1541 1541 1541
1518 1518 1520 1515 1514 1518 1522 1519 1520 1523 1525 1526 1527 1529 1531 1535 1538 1540 1542 1543 1544 1544 1545 1544 1544 1545 1545 1545 1545 1545 1545 1545 1545 1545 1545 1545 1544 1544 1543 1543 1543 1542 1542 1542 1541 1541 1541 1540 1540
1520 1521 1520 1516 1519 1518 1517 1520 1522 1524 1526 1527 1528 1532 1535 1539 1540 1542 1543 1545 1546 1546 1547 1546 1546 1546 1546 1546 1546 1546 1546 1546 1546 1546 1546 1546 1545 1545 1544 1544 1543 1542 1542 1541 1541 1541 1540 1540 1540
1520 1520 1516 1518 1520 1519 1520 1522 1523 1524 1526 1528 1529 1533 1538 1542 1543 1544 1545 1547 1548 1549 1549 1548 1548 1548 1548 1548 1548 1548 1548 1548 1547 1547 1547 1546 1546 1545 1545 1544 1543 1543 1542 1541 1541 1540 1540 1539 1539
1521 1518 1518 1521 1522 1521 1522 1524 1525 1525 1528 1530 1532 1535 1541 1544 1545 1547 1548 1549 1550 1550 1551 1551 1550 1550 1550 1550 1550 1549 1549 1549 1549 1548 1548 1547 1547 1546 1545 1545 1544 1543 1542 1541 1540 1540 1539 1539 1539
1522 1517 1517 1518 1522 1523 1525 1526 1526 1527 1529 1532 1534 1536 1542 1546 1547 1549 1550 1551 1552 1552 1553 1554 1554 1553 1552 1552 1552 1551 1551 1550 1550 1549 1549 1548 1547 1547 1546 1545 1544 1543 1542 1541 1540 1540 1539 1538 1538
1521 1519 1518 1518 1521 1523 1526 1527 1528 1529 1532 1535 1536 1537 1542 1547 1548 1550 1551 1553 1554 1554 1555 1555 1556 1556 1556 1555 1554 1553 1553 1552 1551 1550 1549 1549 1548 1547 1546 1546 1544 1543 1542 1541 1540 1539 1539 1538 1538
1522 1520 1520 1520 1521 1523 1526 1528 1530 1531 1533 1535 1537 1539 1543 1547 1549 1552 1553 1555 1556 1556 1557 1557 1557 1557 1557 1557 1556 1555 1554 1553 1552 1552 1550 1550 1550 1549 1548 1546 1544 1543 1542 1541 1540 1539 1538 1538 1538
1522 1520 1520 1521 1521 1523 1526 1527 1530 1532 1533 1536 1539 1542 1546 1548 1551 1553 1555 1556 1557 1558 1559 1559 1559 1559 1559 1558 1558 1557 1556 1555 1554 1553 1552 1551 1550 1549 1548 1546 1545 1543 1542 1541 1540 1539 1538 1538 1539
1521 1520 1522 1523 1524 1525 1526 1528 1530 1531 1533 1536 1539 1543 1547 1550 1552 1554 1556 1557 1558 1559 1560 1560 1561 1560 1560 1560 1559 1558 1557 1556 1555 1554 1552 1551 1551 1550 1549 1548 1546 1545 1543 1542 1541 1540 1540 1540 1539
1522 1523 1524 1525 1526 1527 1528 1529 1531 1532 1535 1538 1541 1544 1548 1551 1553 1555 1557 1559 1560 1561 1561 1561 1561 1561 1561 1561 1560 1559 1558 1557 1556 1555 1553 1553 1552 1551 1549 1548 1546 1545 1543 1542 1541 1540 1540 1540 1539
1523 1524 1525 1527 1528 1528 1529 1531 1532 1535 1537 1540 1543 1547 1550 1552 1555 1557 1558 1560 1561 1561 1562 1562 1562 1562 1562 1561 1560 1560 1559 1558 1557 1555 1554 1553 1552 1551 1550 1549 1546 1545 1544 1543 1541 1541 1540 1540 1540
1524 1525 1526 1527 1528 1530 1530 1533 1534 1538 1540 1542 1545 1548 1551 1553 1556 1558 1559 1561 1562 1562 1563 1563 1563 1563 1563 1562 1562 1561 1560 1559 1558 1556 1555 1554 1553 1552 1551 1550 1547 1546 1544 1543 1542 1541 1540 1540 1540
1525 1525 1527 1528 1529 1531 1531 1534 1536 1539 1541 1543 1546 1549 1552 1555 1557 1559 1560 1562 1562 1563 1564 1564 1563 1563 1564 1563 1563 1562 1561 1561 1559 1558 1557 1556 1554 1553 1552 1551 1549 1547 1545 1544 1543 1542 1541 1541 1540
1524 1526 1529 1529 1529 1531 1533 1539 1538 1540 1542 1544 1546 1549 1552 1555 1557 1559 1561 1562 1563 1564 1564 1564 1564 1564 1564 1564 1564 1563 1563 1562 1561 1560 1559 1558 1556 1555 1553 1551 1550 1548 1547 1545 1544 1542 1542 1541 1541
1525 1527 1528 1531 1530 1530 1532 1536 1538 1540 1542 1544 1546 1548 1552 1555 1557 1559 1561 1562 1563 1564 1565 1566 1566 1566 1565 1565 1565 1564 1564 1563 1562 1561 1560 1559 1558 1556 1555 1553 1551 1550 1548 1546 1545 1544 1543 1542 1541
1525 1525 1527 1529 1530 1530 1532 1534 1537 1540 1541 1543 1545 1548 1551 1553 1556 1559 1560 1562 1563 1564 1566 1566 1566 1566 1566 1566 1566 1566 1565 1565 1564 1563 1561 1559 1559 1557 1556 1555 1554 1552 1550 1548 1547 1545 1544 1543 1543
1519 1523 1527 1528 1530 1531 1532 1534 1535 1539 1541 1542 1544 1547 1549 1552 1556 1558 1560 1562 1563 1564 1566 1567 1567 1567 1567 1567 1568 1568 1568 1567 1566 1564 1562 1561 1560 1559 1558 1557 1555 1553 1552 1550 1549 1547 1546 1545 1544
1521 1525 1528 1530 1531 1531 1534 1534 1534 1537 1538 1540 1542 1544 1547 1551 1554 1557 1559 1561 1563 1564 1566 1567 1568 1568 1568 1568 1569 1568 1568 1568 1567 1566 1564 1564 1562 1561 1560 1558 1557 1555 1553 1552 1550 1548 1548 1547 1546
1522 1525 1526 1529 1532 1531 1534 1537 1534 1534 1537 1539 1541 1543 1545 1548 1552 1555 1558 1560 1562 1564 1566 1567 1568 1568 1569 1569 1569 1569 1569 1569 1568 1568 1566 1565 1564 1562 1561 1560 1559 1557 1556 1554 1552 1551 1550 1549 1548
1525 1523 1524 1527 1531 1535 1535 1541 1531 1528 1532 1535 1538 1540 1543 1546 1550 1553 1556 1559 1561 1563 1565 1567 1568 1568 1569 1569 1570 1570 1570 1571 1570 1569 1568 1567 1565 1564 1562 1561 1560 1559 1558 1556 1555 1553 1552 1551 1551
1523 1524 1525 1525 1528 1532 1533 1535 1527 1524 1528 1529 1532 1536 1540 1544 1547 1551 1554 1557 1560 1562 1564 1566 1567 1568 1568 1569 1570 1570 1571 1571 1570 1570 1569 1568 1567 1565 1564 1563 1561 1560 1559 1558 1556 1555 1554 1553 1552
1524 1527 1528 1528 1530 1537 1527 1531 1526 1519 1519 1521 1527 1532 1537 1541 1545 1549 1552 1555 1558 1560 1562 1564 1566 1567 1568 1569 1570 1570 1571 1571 1571 1570 1570 1569 1568 1566 1565 1564 1563 1562 1561 1559 1558 1557 1556 1555 1554
1524 1530 1540 1542 1541 1533 1520 1525 1519 1510 1513 1517 1522 1528 1533 1538 1542 1546 1549 1552 1555 1558 1561 1563 1565 1566 1567 1569 1570 1570 1571 1571 1571 1571 1570 1570 1569 1568 1566 1565 1564 1563 1562 1561 1560 1559 1558 1557 1555
1521 1524 1533 1540 1537 1528 1524 1522 1511 1511 1514 1517 1520 1525 1531 1535 1540 1544 1547 1550 1553 1556 1559 1561 1563 1565 1567 1568 1569 1570 1570 1570 1571 1570 1570 1570 1569 1568 1567 1566 1565 1564 1563 1562 1561 1561 1559 1558 1557
1521 1522 1520 1526 1524 1525 1519 1512 1508 1510 1513 1516 1519 1523 1528 1533 1537 1541 1545 1549 1552 1554 1557 1560 1562 1564 1565 1567 1568 1569 1570 1570 1570 1570 1570 1569 1569 1568 1568 1567 1566 1565 1564 1563 1563 1562 1561 1559 1559
1515 1516 1523 1527 1532 1529 1519 1513 1507 1506 1508 1512 1516 1520 1525 1530 1535 1539 1543 1546 1550 1553 1556 1558 1561 1563 1564 1566 1567 1568 1569 1569 1569 1569 1569 1569 1569 1568 1568 1568 1567 1566 1565 1564 1563 1562 1561 1561 1559
1517 1519 1517 1517 1518 1523 1522 1510 1494 1497 1501 1506 1511 1516 1522 1527 1531 1536 1540 1544 1547 1551 1554 1556 1559 1561 1563 1564 1565 1567 1567 1568 1568 1569 1568 1569 1569 1569 1568 1568 1568 1567 1566 1565 1564 1563 1562 1562 1561
1508 1510 1513 1519 1517 1513 1512 1507 1494 1496 1499 1503 1508 1514 1519 1525 1529 1534 1538 1541 1545 1549 1552 1555 1557 1559 1561 1563 1564 1566 1566 1567 1568 1568 1568 1568 1568 1569 1568 1568 1568 1567 1566 1566 1565 1564 1563 1562 1561